[[{"header":{"parameterUnit":"m.s-1","parameterCategory":1,"la1":30.2992,"la2":30.254,"lo1":-89.0895,"lo2":-89.0443,"dy":0.0025,"dx":0.0025,"nx":19,"ny":19,"refTime":"2026-04-10T03:00:00:Z","depth":0,"parameterNumber":2,"parameterNumberName":"U-component_of_WINDS"},"data":[0,0,0,-4.9826,-4.9826,-4.9834,-4.9834,-4.9882,-4.9883,0,0,0,0,0,0,0,0,0,0,0,-4.9845,-4.9846,-4.9826,-4.9826,-4.9834,-4.9834,-4.9882,-4.9883,0,0,0,0,0,0,0,0,0,0,0,-4.9845,-4.9846,-4.9847,-4.9827,-4.9834,-4.9834,-4.9882,-4.9863,0,0,0,0,0,0,0,0,0,0,-4.9849,-4.9887,-4.9846,-4.9847,-4.9827,-4.9834,-4.9834,-4.9861,-4.9864,-4.9895,0,-4.9926,0,-4.9906,-4.9888,-4.9889,0,0,0,-4.981,-4.9885,-4.9868,-4.9847,-4.9827,-4.9834,-4.9826,-4.9862,-4.9865,-4.9899,-4.9927,-4.9927,-4.9906,-4.9889,-4.9889,-5.0119,-5.012,0,0,-4.981,-4.9858,-4.9866,-4.9871,-4.987,-4.9826,-4.9826,-4.9863,-4.9898,-4.9927,-4.9928,-4.9907,-4.9889,-4.989,-5.0117,-5.0119,0,0,0,-4.982,-4.9859,-4.9839,-4.987,-4.9868,-4.9827,-4.9827,-4.9896,-4.9886,-4.9928,-4.9908,-4.989,-4.9891,-5.0115,-5.0118,-5.0254,0,0,0,-4.9819,-4.9864,-4.984,-4.987,-4.9868,-4.9882,-4.986,-4.9883,-4.9886,-4.9908,-4.989,-4.9892,-5.0113,-5.0116,-5.0246,-5.0311,0,0,0,-4.9837,-4.9866,-4.9874,-4.9872,-4.9877,-4.988,-4.9871,-4.9883,-4.9874,-4.9889,-4.9892,-5.0111,-5.0116,-5.0239,-5.0299,-5.0386,0,0,0,-4.9871,-4.9995,-4.9877,-5.0008,-4.9877,-4.9965,-4.987,-4.9933,-4.9962,-4.989,-5.0113,-5.0117,-5.0236,-5.0291,-5.0379,-5.0469,-5.051,0,0,-5.0054,-5.0019,-5.0092,-4.9987,-5.0108,-4.996,-5.0101,-5.0081,-5.0039,-5.0095,-5.01,-5.0249,-5.0298,-5.0385,-5.0728,-5.0761,0,0,0,-5.0167,-5.022,-5.0242,-5.0271,-5.026,-5.0256,-5.021,-5.0204,-5.0249,-5.0077,-5.0302,-5.033,-5.0379,-5.042,-5.0448,-5.0488,-5.0138,-5.0138,-5.0137,-5.0494,-5.0434,-5.0552,-5.0494,-5.0525,-5.0478,-5.0497,-5.0481,-5.041,-5.0465,-5.0481,-5.0696,-5.0746,-5.0767,-5.0809,-5.0523,-5.0524,-5.0524,-5.0525,-5.0758,-5.0824,-5.073,-5.0811,-5.0748,-5.0816,-5.0777,-5.0726,-5.0781,-5.0678,-5.0719,-5.0612,-5.0806,-5.0839,-5.0534,-5.0533,-5.0531,-5.0531,-5.053,-5.0965,-5.0987,-5.0977,-5.1016,-5.1053,-5.0991,-5.1049,-5.0989,-5.0933,-5.0973,-5.0984,-5.0982,-5.0973,-5.0983,-5.0984,-5.0984,-5.0985,-5.0985,-5.0986,-5.1184,-5.1169,-5.1225,-5.1226,-5.1239,-5.1248,-5.1205,-5.1216,-5.1214,-5.1166,-5.1166,-5.1092,-5.0835,-5.0773,-5.0997,-5.0995,-5.0994,-5.0993,-5.0992,-5.1473,-5.1399,-5.1485,-5.1498,-5.1496,-5.1539,-5.1463,-5.1492,-5.1493,-5.1524,-5.1442,-5.1263,-5.1222,-5.1199,-5.1146,-5.1454,-5.1454,-5.1454,-5.1454,-5.1648,-5.1623,-5.1698,-5.1724,-5.1742,-5.1683,-5.1786,-5.1755,-5.1712,-5.1709,-5.1656,-5.1582,-5.1561,-5.1533,-5.1502,-5.1452,-5.1831,-5.1832,-5.1832,-5.1823,-5.1797,-5.1894,-5.1851,-5.1846,-5.1844,-5.1939,-5.1974,-5.1909,-5.1846,-5.1707,-5.1691,-5.157,-5.1533,-5.1466,-5.142,-5.1327,0,0]},{"header":{"parameterUnit":"m.s-1","parameterCategory":1,"la1":30.2992,"la2":30.254,"lo1":-89.0895,"lo2":-89.0443,"dy":0.0025,"dx":0.0025,"nx":19,"ny":19,"refTime":"2026-04-10T03:00:00:Z","depth":0,"parameterNumber":3,"parameterNumberName":"V-component_of_WINDS"},"data":[0,0,0,1.9586,1.9585,1.9576,1.9576,1.9535,1.9535,0,0,0,0,0,0,0,0,0,0,0,1.9574,1.9573,1.9586,1.9585,1.9576,1.9576,1.9535,1.9535,0,0,0,0,0,0,0,0,0,0,0,1.9574,1.9573,1.9572,1.9585,1.9576,1.9576,1.9535,1.9552,0,0,0,0,0,0,0,0,0,0,1.9566,1.954,1.9573,1.9572,1.9585,1.9576,1.9576,1.9553,1.9551,1.9528,0,1.9506,0,1.952,1.953,1.953,0,0,0,1.9595,1.9542,1.9554,1.9572,1.9585,1.9576,1.9583,1.9552,1.955,1.9525,1.9505,1.9505,1.9519,1.953,1.9529,1.9369,1.9368,0,0,1.9596,1.9563,1.9556,1.9551,1.9554,1.9583,1.9583,1.9551,1.9527,1.9505,1.9504,1.9518,1.9529,1.9529,1.937,1.9369,0,0,0,1.9591,1.9562,1.9576,1.9552,1.9553,1.9583,1.9582,1.9528,1.9535,1.9504,1.9518,1.9529,1.9528,1.9371,1.937,1.9276,0,0,0,1.9591,1.956,1.9575,1.9555,1.9553,1.9541,1.9559,1.9537,1.9535,1.9518,1.9529,1.9528,1.9373,1.937,1.9282,1.9236,0,0,0,1.9579,1.9558,1.9552,1.9553,1.9548,1.9542,1.9548,1.9538,1.9543,1.953,1.9527,1.9374,1.9371,1.9287,1.9244,1.9183,0,0,0,1.9555,1.9468,1.955,1.9458,1.9548,1.9486,1.9549,1.9504,1.9481,1.9529,1.9373,1.937,1.9288,1.9249,1.9188,1.9124,1.9095,0,0,1.9426,1.9451,1.9399,1.9473,1.9388,1.949,1.9391,1.9401,1.9429,1.9387,1.9383,1.928,1.9245,1.9184,1.8949,1.8925,0,0,0,1.9347,1.9309,1.9294,1.9273,1.9281,1.9283,1.9313,1.9317,1.9284,1.9401,1.9244,1.9224,1.919,1.916,1.914,1.9112,1.9356,1.9356,1.9356,1.9111,1.9156,1.9073,1.9116,1.9095,1.9129,1.9115,1.9126,1.9173,1.9136,1.9122,1.8974,1.8939,1.8924,1.8894,1.9094,1.9094,1.9094,1.9093,1.8923,1.8875,1.8946,1.8891,1.8937,1.889,1.8919,1.8956,1.8917,1.8988,1.8959,1.9029,1.8897,1.8873,1.9087,1.9088,1.9089,1.9089,1.909,1.8771,1.8756,1.8766,1.8742,1.8719,1.8766,1.8727,1.8771,1.8811,1.8784,1.8773,1.8775,1.878,1.8777,1.8776,1.8776,1.8775,1.8775,1.8775,1.8608,1.8623,1.8586,1.859,1.8583,1.858,1.8615,1.8609,1.8613,1.8648,1.8648,1.8698,1.8878,1.892,1.8767,1.8768,1.8769,1.877,1.877,1.8395,1.8452,1.8394,1.8388,1.8397,1.837,1.8429,1.8413,1.8415,1.8394,1.8453,1.858,1.8606,1.8623,1.8657,1.8445,1.8445,1.8445,1.8445,1.8264,1.8285,1.8237,1.8224,1.8217,1.8266,1.8197,1.8224,1.826,1.8264,1.8302,1.8354,1.8368,1.8387,1.8408,1.8441,1.8178,1.8178,1.8178,1.8135,1.8157,1.8091,1.8131,1.8142,1.815,1.8087,1.8067,1.812,1.8168,1.8267,1.8278,1.8362,1.8388,1.8432,1.8464,1.8526,0,0]}]]